period_start,C,m1,H,J0,J1,J2,J3,J4,J5,JA,JB,JC,JD,JJ,JK,JN,#
2016-10-24 00:03:38,0.01,2.72,0.00,20.22,25.55,29.18,14.60,49.26,1003.95,2037.50,2593.11,2453.03,2745.80,600.46,594.61,51.10,0000 0000 0000 0000 000000
2016-10-24 00:08:39,0.06,2.72,0.00,20.21,25.55,29.19,14.71,49.45,1003.98,2037.44,2592.48,2452.50,2745.05,600.33,594.50,51.15,0000 0000 0000 0000 000000
2016-10-24 00:13:40,0.03,2.72,0.00,20.23,25.56,29.21,14.60,49.55,1004.25,2037.44,2591.78,2451.99,2744.56,600.06,594.41,51.20,0000 0000 0000 0000 000000
2016-10-24 00:18:42,0.06,2.72,0.00,20.23,25.57,29.20,14.63,49.30,1004.38,2037.45,2590.74,2451.29,2743.89,599.71,594.04,51.25,0000 0000 0000 0000 000000
2016-10-24 00:23:43,0.04,2.73,0.00,20.24,25.57,29.22,14.60,49.48,1004.39,2037.43,2589.92,2450.87,2743.11,599.97,594.46,51.30,0000 0000 0000 0000 000000
2016-10-24 00:28:44,0.07,2.73,0.00,20.24,25.58,29.21,14.59,49.62,1004.40,2037.45,2589.11,2450.09,2742.66,599.79,594.10,51.35,0000 0000 0000 0000 000000
2016-10-24 00:33:46,-0.01,2.73,0.00,20.27,25.60,29.24,14.64,49.78,1004.40,2037.23,2588.68,2449.91,2742.01,600.19,594.63,51.40,0000 0000 0000 0000 000000
2016-10-24 00:38:48,0.04,2.73,0.00,20.28,25.60,29.24,14.57,49.25,1004.41,2037.10,2588.05,2449.22,2741.46,599.74,594.20,51.45,0000 0000 0000 0000 000000
2016-10-24 00:43:49,0.02,2.73,0.00,20.29,25.61,29.24,14.57,49.28,1004.41,2037.05,2587.25,2448.91,2740.95,600.08,594.37,51.50,0000 0000 0000 0000 000000
2016-10-24 00:48:50,0.07,2.74,0.00,20.31,25.62,29.22,14.54,49.24,1004.41,2037.01,2586.44,2448.07,2740.11,599.78,594.09,51.55,0000 0000 0000 0000 000000
2016-10-24 00:53:52,0.05,2.74,0.00,20.32,25.63,29.24,14.57,49.23,1004.42,2037.01,2585.77,2447.59,2739.50,599.72,594.04,51.60,0000 0000 0000 0000 000000
2016-10-24 00:58:53,0.03,2.74,0.00,20.30,25.65,29.27,14.60,49.30,1004.41,2037.00,2585.00,2447.01,2738.99,599.82,594.08,51.65,0000 0000 0000 0000 000000
2016-10-24 01:03:54,0.07,2.74,0.00,20.31,25.66,29.26,14.62,49.48,1004.44,2037.00,2584.18,2446.50,2738.22,599.91,594.20,51.70,0000 0000 0000 0000 000000
2016-10-24 01:08:56,0.03,2.75,0.00,20.32,25.67,29.26,14.56,49.65,1004.52,2037.00,2583.71,2446.01,2737.78,599.78,594.14,51.75,0000 0000 0000 0000 000000
2016-10-24 01:13:57,0.05,2.75,0.00,20.32,25.67,29.29,14.55,49.49,1004.58,2037.00,2582.99,2445.49,2737.07,600.32,594.55,51.80,0000 0000 0000 0000 000000
2016-10-24 01:18:58,0.04,2.75,0.00,20.37,25.70,29.30,14.60,49.47,1004.74,2037.00,2582.22,2445.00,2736.57,600.05,594.50,51.86,0000 0000 0000 0000 000000
2016-10-24 01:23:59,0.05,2.75,0.00,20.36,25.70,29.29,14.61,49.68,1004.80,2037.00,2581.61,2444.41,2736.00,600.15,594.61,51.91,0000 0000 0000 0000 000000
2016-10-24 01:29:01,0.03,2.76,0.00,20.36,25.72,29.30,14.69,49.67,1004.87,2036.99,2580.84,2443.95,2735.24,600.14,594.51,51.96,0000 0000 0000 0000 000000
2016-10-24 01:34:02,0.05,2.76,0.00,20.35,25.72,29.30,14.60,49.58,1004.88,2036.99,2580.06,2443.24,2734.91,600.06,594.53,52.01,0000 0000 0000 0000 000000
2016-10-24 01:39:03,0.03,2.76,0.00,20.34,25.74,29.32,14.64,49.73,1004.88,2036.96,2579.50,2442.91,2734.10,600.54,595.14,52.06,0000 0000 0000 0000 000000
2016-10-24 01:44:05,0.06,2.76,0.00,20.33,25.75,29.33,14.65,49.72,1004.88,2036.94,2578.69,2442.13,2733.57,599.72,594.23,52.11,0000 0000 0000 0000 000000
2016-10-24 01:49:06,0.03,2.77,0.00,20.37,25.76,29.31,14.56,49.61,1004.83,2036.87,2577.91,2441.79,2732.95,599.76,594.28,52.16,0000 0000 0000 0000 000000
2016-10-24 01:54:07,0.02,2.77,0.00,20.41,25.77,29.32,14.55,49.61,1004.82,2036.65,2577.09,2441.05,2732.17,599.63,593.92,52.21,0000 0000 0000 0000 000000
2016-10-24 01:59:08,0.05,2.77,0.00,20.49,25.80,29.34,14.56,49.63,1004.89,2036.40,2576.52,2440.72,2731.81,599.99,594.14,52.26,0000 0000 0000 0000 000000
2016-10-24 02:04:09,0.01,2.77,0.00,20.46,25.81,29.36,14.56,49.52,1004.90,2036.25,2575.92,2440.04,2731.05,599.90,594.12,52.31,0000 0000 0000 0000 000000
2016-10-24 02:09:10,0.05,2.77,0.00,20.49,25.82,29.40,14.56,49.48,1004.91,2036.11,2575.08,2439.61,2730.52,599.64,593.85,52.36,0000 0000 0000 0000 000000
2016-10-24 02:14:12,0.03,2.77,0.00,20.50,25.85,29.41,14.59,49.47,1004.91,2036.01,2574.55,2438.97,2729.78,599.93,594.09,52.41,0000 0000 0000 0000 000000
2016-10-24 02:19:13,0.07,2.78,0.00,20.53,25.86,29.41,14.54,49.47,1004.95,2036.00,2573.47,2438.14,2728.96,599.72,593.80,52.46,0000 0000 0000 0000 000000
2016-10-24 02:24:14,0.07,2.78,0.00,20.54,25.87,29.44,14.59,49.55,1004.99,2036.00,2572.43,2437.40,2728.05,600.15,594.30,52.51,0000 0000 0000 0000 000000
2016-10-24 02:29:16,0.07,2.79,0.00,20.59,25.90,29.46,14.58,49.44,1005.15,2036.00,2571.31,2436.62,2727.13,600.02,594.11,52.56,0000 0000 0000 0000 000000
2016-10-24 02:34:17,0.06,2.79,0.00,20.61,25.91,29.48,14.54,49.63,1005.29,2035.99,2570.24,2435.88,2726.24,599.97,594.27,52.61,0000 0000 0000 0000 000000
2016-10-24 02:39:18,0.07,2.79,0.00,20.63,25.92,29.48,14.63,49.74,1005.34,2035.99,2569.25,2435.06,2725.42,600.02,594.12,52.66,0000 0000 0000 0000 000000
2016-10-24 02:44:19,0.07,2.80,0.00,20.63,25.95,29.53,14.56,49.76,1005.38,2035.98,2568.44,2434.41,2724.66,599.98,594.18,52.71,0000 0000 0000 0000 000000
2016-10-24 02:49:21,0.05,2.80,0.00,20.63,25.96,29.52,14.64,49.72,1005.38,2035.95,2567.37,2433.73,2723.88,599.84,594.05,52.76,0000 0000 0000 0000 000000
2016-10-24 02:54:22,0.05,2.80,0.00,20.64,25.97,29.52,14.60,49.65,1005.39,2035.88,2566.35,2433.01,2723.05,600.35,594.49,52.82,0000 0000 0000 0000 000000
2016-10-24 02:59:23,0.04,2.81,0.00,20.66,25.99,29.53,14.52,49.50,1005.38,2035.67,2565.62,2432.28,2722.29,599.83,594.09,52.87,0000 0000 0000 0000 000000
2016-10-24 03:04:25,0.01,2.81,0.00,20.70,26.00,29.52,14.55,49.63,1005.39,2035.21,2564.74,2431.84,2721.59,599.96,593.93,52.92,0000 0000 0000 0000 000000
2016-10-24 03:09:26,0.04,2.81,0.00,20.76,26.02,29.56,14.58,49.65,1005.39,2035.07,2563.91,2431.06,2720.93,600.15,594.06,52.97,0000 0000 0000 0000 000000
2016-10-24 03:14:27,0.06,2.81,0.00,20.78,26.02,29.59,14.67,49.66,1005.39,2035.02,2563.03,2430.57,2720.10,600.17,593.95,53.02,0000 0000 0000 0000 000000
2016-10-24 03:19:28,0.05,2.81,0.00,20.83,26.04,29.62,14.65,49.61,1005.43,2035.00,2562.14,2430.00,2719.53,600.17,593.82,53.07,0000 0000 0000 0000 000000
2016-10-24 03:24:29,0.06,2.82,0.00,20.83,26.05,29.65,14.58,49.48,1005.43,2035.00,2561.48,2429.33,2718.98,599.92,593.75,53.12,0000 0000 0000 0000 000000
2016-10-24 03:29:31,0.04,2.82,0.00,20.88,26.07,29.66,14.58,49.48,1005.54,2035.00,2560.76,2428.96,2718.21,599.99,593.79,53.17,0000 0000 0000 0000 000000
2016-10-24 03:34:32,0.06,2.82,0.00,20.91,26.08,29.66,14.59,49.67,1005.70,2035.00,2560.02,2428.17,2717.68,599.67,593.61,53.22,0000 0000 0000 0000 000000
2016-10-24 03:39:33,0.03,2.82,0.00,20.92,26.10,29.64,14.64,49.59,1005.82,2035.00,2559.33,2427.95,2717.01,600.24,594.04,53.27,0000 0000 0000 0000 000000
2016-10-24 03:44:35,0.05,2.83,0.00,20.93,26.12,29.66,14.64,49.46,1005.85,2034.99,2558.96,2427.16,2716.47,600.35,594.23,53.32,0000 0000 0000 0000 000000
2016-10-24 03:49:36,0.04,2.83,0.00,20.94,26.14,29.71,14.61,49.42,1005.87,2034.99,2558.13,2426.82,2715.93,600.18,594.09,53.37,0000 0000 0000 0000 000000
2016-10-24 03:54:37,0.05,2.83,0.00,21.00,26.16,29.64,14.66,49.47,1005.87,2034.98,2557.61,2426.06,2715.13,600.03,593.62,53.42,0000 0000 0000 0000 000000
2016-10-24 03:59:39,0.05,2.83,0.00,21.05,26.18,29.63,14.47,49.45,1005.87,2034.97,2556.84,2425.70,2714.62,599.73,593.37,53.47,0000 0000 0000 0000 000000
2016-10-24 04:04:40,0.04,2.84,0.00,21.12,26.20,29.65,14.52,49.15,1005.87,2034.97,2556.07,2425.03,2714.01,599.67,593.19,53.52,0000 0000 0000 0000 000000
2016-10-24 04:09:42,0.02,2.84,0.00,21.13,26.23,29.64,14.59,49.17,1005.88,2034.66,2555.55,2424.60,2713.33,600.28,593.69,53.57,0000 0000 0000 0000 000000
2016-10-24 04:14:43,0.03,2.84,0.00,21.09,26.25,29.65,14.54,49.24,1005.98,2034.26,2554.52,2423.95,2712.66,600.04,593.59,53.62,0000 0000 0000 0000 000000
2016-10-24 04:19:44,0.07,2.84,0.00,21.16,26.28,29.67,14.72,49.37,1006.27,2034.14,2553.23,2423.08,2711.70,600.50,594.17,53.67,0000 0000 0000 0000 000000
2016-10-24 04:24:45,0.06,2.84,0.00,21.21,26.31,29.69,14.55,49.08,1006.35,2034.04,2552.21,2422.21,2710.94,600.28,594.00,53.72,0000 0000 0000 0000 000000
2016-10-24 04:29:47,0.06,2.85,0.00,21.21,26.33,29.73,14.52,49.14,1006.36,2034.01,2551.47,2421.65,2710.05,600.00,593.46,53.78,0000 0000 0000 0000 000000
2016-10-24 04:34:48,0.09,2.85,0.00,21.23,26.36,29.74,14.66,49.30,1006.37,2034.00,2550.07,2420.56,2709.08,600.45,594.18,53.83,0000 0000 0000 0000 000000
2016-10-24 04:39:49,0.05,2.86,0.00,21.23,26.38,29.76,14.56,49.15,1006.38,2034.00,2549.05,2419.99,2708.13,599.57,593.28,53.88,0000 0000 0000 0000 000000
2016-10-24 04:44:51,0.16,2.86,0.00,21.27,26.41,29.80,14.64,49.39,1006.42,2034.00,2547.19,2418.72,2706.92,600.49,593.99,53.93,0000 0000 0000 0000 000000
2016-10-24 04:49:52,0.20,2.87,0.00,21.28,26.44,29.86,14.61,49.08,1006.51,2033.99,2543.72,2416.48,2704.41,599.87,593.55,53.98,0000 0000 0000 0000 000000
2016-10-24 04:54:53,0.13,2.88,0.00,21.30,26.47,29.87,14.49,48.77,1006.66,2033.93,2541.44,2414.84,2702.54,599.56,593.22,54.03,0000 0000 0000 0000 000000
2016-10-24 04:59:54,0.01,2.88,0.00,21.31,26.50,29.90,14.65,49.15,1006.81,2033.59,2540.59,2413.99,2701.63,600.01,593.69,54.08,0000 0000 0000 0000 000000
2016-10-24 05:04:55,0.06,2.88,0.00,21.31,26.53,29.97,14.55,49.06,1006.83,2033.10,2539.32,2413.13,2700.55,600.09,593.83,54.13,0000 0000 0000 0000 000000
2016-10-24 05:09:56,0.07,2.89,0.00,21.37,26.56,29.99,14.54,48.98,1006.83,2033.03,2538.08,2412.11,2699.55,600.20,593.62,54.18,0000 0000 0000 0000 000000
2016-10-24 05:14:57,0.09,2.89,0.00,21.38,26.57,30.00,14.57,49.16,1006.85,2033.00,2536.79,2411.21,2698.63,599.96,593.66,54.23,0000 0000 0000 0000 000000
2016-10-24 05:19:58,0.12,2.90,0.00,21.43,26.60,30.04,14.61,49.17,1006.85,2033.00,2534.93,2409.89,2697.05,600.02,593.57,54.28,0000 0000 0000 0000 000000
2016-10-24 05:24:59,0.14,2.90,0.00,21.44,26.63,30.07,14.55,49.23,1006.86,2032.99,2533.11,2408.54,2695.55,599.99,593.44,54.33,0000 0000 0000 0000 000000
2016-10-24 05:30:01,0.09,2.91,0.00,21.46,26.65,30.09,14.51,49.19,1006.88,2032.96,2531.38,2407.34,2694.13,600.29,593.69,54.38,0000 0000 0000 0000 000000
2016-10-24 05:35:02,0.09,2.92,0.00,21.47,26.67,30.12,14.49,49.32,1006.90,2032.83,2529.69,2406.14,2692.86,599.41,592.79,54.43,0000 0000 0000 0000 000000
2016-10-24 05:40:04,0.05,2.92,0.00,21.47,26.70,30.17,14.56,49.29,1006.97,2032.36,2528.21,2405.03,2691.58,600.21,593.67,54.48,0000 0000 0000 0000 000000
2016-10-24 05:45:04,0.09,2.92,0.00,21.48,26.72,30.22,14.58,49.21,1007.15,2032.07,2526.54,2403.95,2690.40,599.99,593.53,54.53,0000 0000 0000 0000 000000
2016-10-24 05:50:06,0.10,2.93,0.00,21.52,26.74,30.23,14.51,49.07,1007.11,2032.02,2524.96,2402.84,2689.20,599.77,593.23,54.58,0000 0000 0000 0000 000000
2016-10-24 05:55:07,0.14,2.93,0.00,21.54,26.75,30.22,14.52,49.04,1007.16,2032.00,2523.09,2401.60,2687.78,599.83,593.21,54.63,0000 0000 0000 0000 000000
2016-10-24 06:00:09,0.10,2.94,0.00,21.54,26.77,30.27,14.51,49.21,1007.24,2032.00,2521.22,2400.39,2686.52,599.63,593.04,54.68,0000 0000 0000 0000 000000
2016-10-24 06:05:10,0.15,2.95,0.00,21.54,26.78,30.27,14.65,49.27,1007.31,2032.00,2519.09,2398.93,2684.97,600.07,593.56,54.73,0000 0000 0000 0000 000000
2016-10-24 06:10:11,0.13,2.95,0.00,21.52,26.80,30.33,14.50,49.00,1007.34,2032.00,2516.88,2397.52,2683.45,599.66,593.39,54.78,0000 0000 0000 0000 000000
2016-10-24 06:15:12,0.12,2.96,0.00,21.52,26.81,30.40,14.57,49.38,1007.34,2032.00,2514.80,2396.27,2681.99,599.77,593.47,54.83,0000 0000 0000 0000 000000
2016-10-24 06:20:14,0.14,2.97,0.00,21.54,26.82,30.43,14.57,49.47,1007.35,2031.99,2512.68,2394.84,2680.52,599.70,593.23,54.89,0000 0000 0000 0000 000000
2016-10-24 06:25:15,0.15,2.98,0.00,21.53,26.82,30.46,14.59,49.23,1007.35,2031.99,2510.22,2393.45,2679.15,599.92,593.47,54.94,0000 0000 0000 0000 000000
2016-10-24 06:30:16,0.05,2.98,0.00,21.54,26.84,30.45,14.62,49.05,1007.39,2031.99,2509.01,2392.73,2678.07,599.95,593.54,54.99,0000 0000 0000 0000 000000
2016-10-24 06:35:18,0.06,2.98,0.00,21.53,26.85,30.48,14.56,49.08,1007.66,2031.99,2508.32,2391.91,2677.38,599.58,593.18,55.04,0000 0000 0000 0000 000000
2016-10-24 06:40:19,0.09,2.99,0.00,21.56,26.86,30.48,14.66,49.27,1007.80,2031.99,2506.72,2391.00,2676.26,600.39,594.15,55.09,0000 0000 0000 0000 000000
2016-10-24 06:45:20,0.10,2.99,0.00,21.55,26.87,30.46,14.53,49.30,1007.82,2031.97,2505.30,2389.94,2675.13,599.85,593.65,55.14,0000 0000 0000 0000 000000
2016-10-24 06:50:22,0.11,3.00,0.00,21.58,26.87,30.51,14.57,49.17,1007.83,2031.94,2503.64,2388.82,2673.83,599.92,593.64,55.19,0000 0000 0000 0000 000000
2016-10-24 06:55:23,0.08,3.00,0.00,21.58,26.89,30.52,14.63,49.18,1007.83,2031.90,2502.22,2387.82,2672.75,599.99,593.69,55.24,0000 0000 0000 0000 000000
2016-10-24 07:00:24,0.13,3.01,0.00,21.58,26.90,30.51,14.62,49.27,1007.83,2031.66,2500.04,2386.49,2671.18,600.12,593.84,55.29,0000 0000 0000 0000 000000
2016-10-24 07:05:25,0.14,3.02,0.00,21.58,26.90,30.52,14.63,49.27,1007.83,2031.44,2497.41,2384.80,2669.45,600.26,593.90,55.34,0000 0000 0000 0000 000000
2016-10-24 07:10:26,0.09,3.02,0.00,21.60,26.92,30.54,14.60,49.13,1007.84,2031.32,2495.59,2383.62,2668.06,599.92,593.49,55.39,0000 0000 0000 0000 000000
2016-10-24 07:15:27,0.14,3.03,0.00,21.59,26.92,30.52,14.65,49.32,1007.89,2031.26,2493.50,2382.38,2666.64,600.10,593.78,55.44,0000 0000 0000 0000 000000
2016-10-24 07:20:28,0.27,3.04,0.00,21.56,26.92,30.53,14.64,49.23,1008.04,2031.72,2490.38,2380.44,2664.66,599.92,593.91,55.49,0000 0000 0000 0000 000000
2016-10-24 07:25:30,0.25,3.05,0.00,21.55,26.92,30.54,14.64,49.19,1008.11,2031.91,2486.41,2378.16,2662.11,600.03,593.98,55.54,0000 0000 0000 0000 000000
2016-10-24 07:30:31,0.21,3.06,0.00,21.57,26.94,30.51,14.61,49.15,1008.26,2031.92,2483.22,2376.02,2659.77,600.07,594.08,55.59,0000 0000 0000 0000 000000
2016-10-24 07:35:33,0.19,3.07,0.00,21.60,26.95,30.54,14.58,49.09,1008.31,2031.89,2480.25,2374.11,2657.64,599.97,593.93,55.64,0000 0000 0000 0000 000000
2016-10-24 07:40:34,0.22,3.09,0.00,21.58,26.95,30.53,14.62,49.21,1008.31,2031.78,2476.93,2371.82,2655.13,600.03,594.03,55.69,0000 0000 0000 0000 000000
2016-10-24 07:45:35,0.24,3.10,0.00,21.57,26.95,30.53,14.62,49.37,1008.31,2031.74,2473.39,2369.41,2652.42,599.93,593.97,55.74,0000 0000 0000 0000 000000
2016-10-24 07:50:37,0.19,3.11,0.00,21.57,26.96,30.54,14.63,49.41,1008.31,2031.65,2470.19,2367.31,2650.08,600.20,594.08,55.80,0000 0000 0000 0000 000000
2016-10-24 07:55:38,0.17,3.12,0.00,21.58,26.97,30.56,14.69,49.42,1008.34,2031.56,2467.44,2365.44,2647.94,600.25,594.19,55.85,0000 0000 0000 0000 000000
2016-10-24 08:00:39,0.21,3.13,0.00,21.57,26.97,30.55,14.62,49.26,1008.37,2031.53,2464.49,2363.39,2645.68,599.98,594.02,55.90,0000 0000 0000 0000 000000
2016-10-24 08:05:40,0.23,3.14,0.00,21.59,26.97,30.55,14.58,49.16,1008.48,2031.34,2460.88,2360.97,2642.94,599.75,593.84,55.95,0000 0000 0000 0000 000000
2016-10-24 08:10:41,0.33,3.15,0.00,21.55,26.97,30.55,14.64,49.33,1008.66,2031.30,2456.17,2357.79,2639.49,600.04,594.28,56.00,0000 0000 0000 0000 000000
2016-10-24 08:15:43,0.31,3.17,0.00,21.51,26.97,30.53,14.61,49.44,1008.74,2031.21,2451.41,2354.53,2635.94,600.15,594.54,56.05,0000 0000 0000 0000 000000
2016-10-24 08:20:44,0.24,3.19,0.00,21.56,26.98,30.55,14.53,49.39,1008.76,2031.22,2447.60,2351.90,2633.02,599.68,594.03,56.10,0000 0000 0000 0000 000000
2016-10-24 08:25:45,0.16,3.20,0.00,21.55,26.98,30.55,14.64,49.41,1008.80,2031.11,2444.81,2350.01,2630.89,600.10,594.45,56.15,0000 0000 0000 0000 000000
2016-10-24 08:30:46,0.08,3.20,0.00,21.56,26.99,30.56,14.62,49.55,1008.80,2031.05,2443.39,2348.99,2629.73,600.07,594.42,56.20,0000 0000 0000 0000 000000
2016-10-24 08:35:47,0.55,3.22,0.00,21.57,26.99,30.54,14.63,49.29,1008.80,2031.04,2436.70,2345.23,2625.58,600.08,594.53,56.25,0000 0000 0000 0000 000000
2016-10-24 08:40:48,1.51,3.26,0.00,21.57,26.99,30.54,14.61,49.62,1008.81,2031.01,2419.47,2334.80,2614.47,599.84,594.20,56.30,0000 0000 0000 0000 000000
2016-10-24 08:45:49,0.24,3.32,0.00,21.54,26.99,30.54,14.63,49.36,1008.82,2031.00,2408.37,2327.80,2606.75,600.35,594.73,56.35,0000 0000 0000 0000 000000
2016-10-24 08:50:51,0.05,3.32,0.00,21.49,26.98,30.55,14.57,49.47,1008.83,2031.00,2407.09,2327.01,2605.95,599.93,594.49,56.40,0000 0000 0000 0000 000000
2016-10-24 08:55:52,0.08,3.33,0.00,21.50,26.97,30.53,14.53,49.37,1008.87,2031.00,2406.14,2326.24,2605.10,599.54,594.17,56.45,0000 0000 0000 0000 000000
2016-10-24 09:00:53,0.04,3.33,0.00,21.51,26.97,30.55,14.58,49.52,1008.92,2031.00,2405.33,2325.97,2604.70,599.54,594.08,56.50,0000 0000 0000 0000 000000
2016-10-24 09:05:55,0.07,3.33,0.00,21.51,26.97,30.54,14.61,49.47,1009.02,2031.03,2404.57,2325.23,2604.01,599.75,594.31,56.55,0000 0000 0000 0000 000000
2016-10-24 09:10:56,0.05,3.33,0.00,21.51,26.97,30.53,14.60,49.50,1009.24,2031.01,2403.70,2324.87,2603.20,599.84,594.52,56.60,0000 0000 0000 0000 000000
2016-10-24 09:15:57,0.05,3.34,0.00,21.50,26.97,30.52,14.61,49.40,1009.28,2031.04,2402.95,2324.09,2602.83,599.88,594.65,56.65,0000 0000 0000 0000 000000
2016-10-24 09:20:58,0.04,3.34,0.00,21.52,26.97,30.52,14.50,49.31,1009.29,2031.02,2402.12,2323.84,2602.07,599.63,594.34,56.71,0000 0000 0000 0000 000000
2016-10-24 09:26:00,0.06,3.34,0.00,21.50,26.95,30.51,14.50,49.33,1009.29,2031.02,2401.35,2323.06,2601.63,599.32,594.11,56.76,0000 0000 0000 0000 000000
2016-10-24 09:31:01,0.02,3.34,0.00,21.45,26.95,30.48,14.69,49.43,1009.30,2031.04,2400.81,2322.90,2601.02,600.46,595.32,56.81,0000 0000 0000 0000 000000
2016-10-24 09:36:03,0.07,3.35,0.00,21.47,26.95,30.50,14.57,49.42,1009.31,2031.04,2400.04,2322.13,2600.50,599.81,594.63,56.86,0000 0000 0000 0000 000000
2016-10-24 09:41:03,0.02,3.35,0.00,21.46,26.95,30.50,14.57,49.22,1009.34,2031.02,2399.44,2321.93,2599.99,599.80,594.66,56.91,0000 0000 0000 0000 000000
2016-10-24 09:46:05,0.07,3.35,0.00,21.44,26.94,30.50,14.67,49.59,1009.31,2031.02,2398.65,2321.18,2599.28,600.32,595.23,56.96,0000 0000 0000 0000 000000
2016-10-24 09:51:06,0.02,3.35,0.00,21.47,26.92,30.49,14.60,49.36,1009.34,2031.08,2397.94,2320.99,2598.96,599.99,594.83,57.01,0000 0000 0000 0000 000000
2016-10-24 09:56:07,0.07,3.36,0.00,21.48,26.92,30.48,14.69,49.52,1009.43,2031.06,2397.09,2320.26,2598.16,600.22,595.09,57.06,0000 0000 0000 0000 000000
2016-10-24 10:01:08,0.03,3.36,0.00,21.47,26.92,30.49,14.53,49.38,1009.55,2031.07,2396.48,2320.00,2597.88,599.88,594.98,57.11,0000 0000 0000 0000 000000
2016-10-24 10:06:09,0.05,3.36,0.00,21.47,26.91,30.48,14.60,49.43,1009.63,2031.04,2395.96,2319.33,2597.10,599.99,595.00,57.16,0000 0000 0000 0000 000000
2016-10-24 10:11:10,0.05,3.37,0.00,21.47,26.90,30.48,14.58,49.39,1009.64,2031.10,2395.13,2318.99,2596.72,599.91,594.93,57.21,0000 0000 0000 0000 000000
2016-10-24 10:16:11,0.07,3.37,0.00,21.47,26.90,30.47,14.63,49.47,1009.53,2031.13,2394.32,2318.47,2596.04,600.10,595.04,57.26,0000 0000 0000 0000 000000
2016-10-24 10:21:12,0.02,3.37,0.00,21.45,26.90,30.46,14.63,49.49,1009.68,2031.09,2393.76,2318.00,2595.50,599.86,595.06,57.31,0000 0000 0000 0000 000000
2016-10-24 10:26:14,0.05,3.37,0.00,21.46,26.90,30.46,14.57,49.44,1009.76,2031.05,2393.04,2317.56,2595.00,600.10,595.25,57.36,0000 0000 0000 0000 000000
2016-10-24 10:31:15,0.05,3.38,0.00,21.45,26.89,30.46,14.61,49.46,1009.78,2031.05,2392.40,2317.03,2594.50,599.57,594.72,57.41,0000 0000 0000 0000 000000
2016-10-24 10:36:16,0.02,3.38,0.00,21.45,26.88,30.44,14.56,49.33,1009.78,2031.08,2391.92,2316.83,2594.00,599.92,595.15,57.46,0000 0000 0000 0000 000000
2016-10-24 10:41:18,0.07,3.38,0.00,21.46,26.87,30.47,14.60,49.52,1009.78,2031.08,2391.10,2316.07,2593.48,599.53,594.60,57.51,0000 0000 0000 0000 000000
2016-10-24 10:46:19,0.02,3.38,0.00,21.44,26.87,30.45,14.62,49.26,1009.78,2031.08,2390.63,2315.94,2593.00,600.20,595.25,57.56,0000 0000 0000 0000 000000
2016-10-24 10:51:20,0.06,3.39,0.00,21.44,26.87,30.45,14.66,49.30,1009.79,2031.09,2389.98,2315.21,2592.50,600.06,595.18,57.61,0000 0000 0000 0000 000000
2016-10-24 10:56:21,0.02,3.39,0.00,21.45,26.87,30.48,14.64,49.34,1009.80,2031.06,2389.42,2314.99,2592.01,600.00,595.09,57.66,0000 0000 0000 0000 000000
2016-10-24 11:01:23,0.07,3.39,0.00,21.44,26.86,30.45,14.59,49.46,1009.83,2031.05,2388.68,2314.50,2591.43,599.98,595.03,57.72,0000 0000 0000 0000 000000
2016-10-24 11:06:24,0.02,3.39,0.00,21.42,26.85,30.46,14.61,49.03,1009.97,2031.09,2388.00,2314.01,2590.98,599.62,594.90,57.77,0000 0000 0000 0000 000000
2016-10-24 11:11:25,0.06,3.39,0.00,21.42,26.85,30.43,14.63,49.32,1010.03,2031.03,2387.23,2313.66,2590.23,600.12,595.47,57.82,0000 0000 0000 0000 000000
2016-10-24 11:16:26,0.04,3.40,0.00,21.41,26.85,30.45,14.62,49.41,1010.13,2031.03,2386.64,2313.03,2589.94,600.00,595.43,57.87,0000 0000 0000 0000 000000
2016-10-24 11:21:28,0.04,3.40,0.00,21.38,26.85,30.42,14.60,49.30,1010.20,2031.08,2386.00,2312.83,2589.16,599.89,595.40,57.92,0000 0000 0000 0000 000000
2016-10-24 11:26:29,0.05,3.40,0.00,21.37,26.85,30.43,14.57,49.36,1010.25,2031.06,2385.30,2312.08,2588.91,599.93,595.51,57.97,0000 0000 0000 0000 000000
2016-10-24 11:31:30,0.05,3.40,0.00,21.38,26.83,30.43,14.69,49.49,1010.26,2031.09,2384.57,2311.80,2588.10,600.09,595.65,58.02,0000 0000 0000 0000 000000
2016-10-24 11:36:31,0.04,3.41,0.00,21.36,26.83,30.43,14.59,49.30,1010.27,2031.09,2383.95,2311.08,2587.84,599.89,595.47,58.07,0000 0000 0000 0000 000000
2016-10-24 11:41:33,0.04,3.41,0.00,21.36,26.82,30.41,14.61,49.39,1010.27,2031.07,2383.13,2310.96,2587.06,599.97,595.68,58.12,0000 0000 0000 0000 000000
2016-10-24 11:46:34,0.06,3.41,0.00,21.33,26.82,30.40,14.60,49.36,1010.28,2031.05,2382.54,2310.19,2586.67,600.02,595.66,58.17,0000 0000 0000 0000 000000
2016-10-24 11:51:35,0.03,3.41,0.00,21.31,26.82,30.38,14.65,49.43,1010.28,2031.10,2381.95,2309.99,2586.03,599.87,595.64,58.22,0000 0000 0000 0000 000000
2016-10-24 11:56:37,0.06,3.42,0.00,21.33,26.82,30.38,14.67,49.46,1010.29,2031.06,2381.14,2309.34,2585.68,600.36,596.06,58.27,0000 0000 0000 0000 000000
2016-10-24 12:01:38,0.04,3.42,0.00,21.26,26.82,30.36,14.61,49.39,1010.31,2031.11,2380.53,2309.00,2585.03,599.83,595.61,58.32,0000 0000 0000 0000 000000
2016-10-24 12:06:39,0.05,3.42,0.00,21.27,26.82,30.34,14.65,49.38,1010.31,2031.06,2379.92,2308.52,2584.58,599.83,595.61,58.37,0000 0000 0000 0000 000000
2016-10-24 12:11:41,0.04,3.43,0.00,21.28,26.81,30.30,14.67,49.28,1010.45,2031.05,2379.08,2308.01,2584.00,600.11,595.98,58.42,0000 0000 0000 0000 000000
2016-10-24 12:16:42,0.05,3.43,0.00,21.31,26.80,30.36,14.71,49.37,1010.56,2031.08,2378.69,2307.78,2583.62,600.28,596.20,58.47,0000 0000 0000 0000 000000
2016-10-24 12:21:43,0.03,3.43,0.00,21.28,26.80,30.36,14.61,49.46,1010.57,2031.03,2378.41,2307.23,2583.03,599.89,595.57,58.52,0000 0000 0000 0000 000000
2016-10-24 12:26:44,0.06,3.43,0.00,21.28,26.80,30.36,14.64,49.52,1010.60,2031.07,2377.38,2306.96,2582.55,599.79,595.75,58.57,0000 0000 0000 0000 000000
2016-10-24 12:31:45,0.02,3.43,0.00,21.27,26.79,30.33,14.72,49.52,1010.58,2031.03,2377.24,2306.57,2582.03,600.29,596.25,58.63,0000 0000 0000 0000 000000
2016-10-24 12:36:46,0.05,3.44,0.00,21.19,26.77,30.33,14.69,49.53,1010.67,2031.03,2376.37,2306.00,2581.58,600.08,596.12,58.68,0000 0000 0000 0000 000000
2016-10-24 12:41:48,0.04,3.44,0.00,21.23,26.77,30.33,14.65,49.54,1010.72,2031.08,2375.87,2305.68,2581.00,600.23,596.32,58.73,0000 0000 0000 0000 000000
2016-10-24 12:46:49,0.05,3.44,0.00,21.23,26.77,30.34,14.63,49.34,1010.74,2031.07,2374.97,2305.03,2580.59,600.13,596.28,58.78,0000 0000 0000 0000 000000
2016-10-24 12:51:51,0.06,3.44,0.00,21.21,26.75,30.32,14.68,49.58,1010.75,2031.06,2373.98,2304.44,2579.98,600.05,596.25,58.83,0000 0000 0000 0000 000000
2016-10-24 12:56:52,0.07,3.45,0.00,21.20,26.75,30.30,14.59,49.38,1010.76,2031.23,2373.10,2304.01,2579.35,599.91,596.06,58.88,0000 0000 0000 0000 000000